Weather History for Cheyenne F E Warren, WY

Change the Weather History Date:

Wednesday, January 22, 2014

  Actual Average (KCYS) Record (KCYS)
Temperature  
Mean Temperature 26 °F 29 °F  
Max Temperature 36 °F 40 °F 62 °F (1981)
Min Temperature 16 °F 18 °F -18 °F (1962)
Degree Days  
Heating Degree Days 38 36  
Month to date heating degree days 793  
Since 1 July heating degree days 3696  
Cooling Degree Days 0 0  
Month to date cooling degree days 0  
Year to date cooling degree days 0  
Moisture  
Dew Point 18 °F    
Average Humidity 78    
Maximum Humidity 94    
Minimum Humidity 50    
Precipitation  
Precipitation 0.02 in 0.01 in 0.16 in (1982)
Month to date precipitation 0.23  
Year to date precipitation 0.23  
Snow  
Snow 0.00 in 0.20 in 1.90 in (1982)
Month to date snowfall 4.2  
Since 1 July snowfall 26.9  
Snow Depth 2.00 in    
Sea Level Pressure  
Sea Level Pressure 30.24 in    
Wind  
Wind Speed 8 mph (ENE)    
Max Wind Speed 15 mph    
Max Gust Speed 13 mph    
Visibility 8 miles    
Events Snow    
T = Trace of Precipitation, MM = Missing Value Source: NWS Daily Summary

Daily Weather History Graph

Daily Weather History Graph

Search for Another Location

Airport:

Trip Planner

Search our weather history database for the weather conditions in past years. The results will help you decide how hot, cold, wet, or windy it might be!

Date:

Astronomy

Jan. 22, 2014 Rise Set
Actual Time 7:18 AM MST 5:03 PM MST
Civil Twilight 6:48 AM MST 5:33 PM MST
Nautical Twilight 6:15 AM MST 6:07 PM MST
Astronomical Twilight 5:42 AM MST 6:40 PM MST
Moon 11:43 PM MST (1/22) 10:17 AM MST (1/22)
Length of Visible Light 10h 45m
Length of Day
9h 45m
Waning Gibbous, 65% of the Moon is Illuminated
Jan 22
Waning Gibbous
Jan 23
Last Quarter
Jan 30
New
Feb 6
First Quarter
Feb 14
Full

Hourly Weather History & Observations

Time (MST) Temp. Windchill Dew Point Humidity Pressure Visibility Wind Dir Wind Speed Gust Speed Precip Events Conditions
4:07 AM 21.2 °F 10.9 °F 8.6 °F 58% 30.13 in 12.0 mi West 9.2 mph - N/A   Clear
4:56 AM 18.7 °F 10.6 °F 8.6 °F 65% 30.18 in 12.0 mi East 5.8 mph - N/A   Clear
5:56 AM 25.3 °F 19.7 °F 10.8 °F 54% 30.20 in 12.0 mi NNW 4.6 mph - N/A   Clear
6:56 AM 19.8 °F 14.7 °F 10.4 °F 67% 30.24 in 12.0 mi WNW 3.5 mph - N/A   Clear
7:56 AM 20.7 °F 15.8 °F 12.6 °F 71% 30.28 in 12.0 mi NNW 3.5 mph - N/A   Clear
8:56 AM 28.9 °F 19.8 °F 19.2 °F 67% 30.27 in 12.0 mi NNE 10.4 mph 12.7 mph N/A   Clear
9:56 AM 31.5 °F 25.8 °F 19.6 °F 62% 30.28 in 12.0 mi Variable 5.8 mph - N/A   Clear
10:56 AM 34.2 °F 26.8 °F 18.9 °F 54% 30.26 in 12.0 mi NE 9.2 mph - N/A   Clear
11:56 AM 36.9 °F 30.7 °F 19.8 °F 50% 30.21 in 12.0 mi NNE 8.1 mph - N/A   Clear
12:56 PM 34.7 °F 26.9 °F 19.9 °F 55% 30.11 in 12.0 mi ENE 10.4 mph - N/A   Partly Cloudy
1:56 PM 32.7 °F 23.4 °F 21.6 °F 64% 30.17 in 12.0 mi NE 12.7 mph - N/A   Mostly Cloudy
2:57 PM 31.3 °F 21.6 °F 21.7 °F 68% 30.19 in 12.0 mi NE 12.7 mph - N/A   Scattered Clouds
3:56 PM 26.8 °F 14.9 °F 22.3 °F 83% 30.24 in 12.0 mi ENE 15.0 mph - N/A   Mostly Cloudy
4:06 PM 24.8 °F 13.4 °F 21.2 °F 86% 30.10 in 12.0 mi NE 12.7 mph - N/A   Mostly Cloudy
4:56 PM 24.4 °F 15.6 °F 21.0 °F 87% 30.29 in 12.0 mi ENE 8.1 mph - N/A   Overcast
5:56 PM 22.8 °F 13.6 °F 19.6 °F 87% 30.27 in 12.0 mi ENE 8.1 mph - N/A   Overcast
6:36 PM 21.2 °F 11.7 °F 17.6 °F 86% 30.15 in 7.0 mi ENE 8.1 mph - N/A Snow Light Snow
6:56 PM 21.9 °F 13.4 °F 19.0 °F 89% 30.35 in 6.0 mi ENE 6.9 mph - N/A Snow Light Snow
7:56 PM 21.9 °F 15.7 °F 18.9 °F 88% 30.35 in 4.0 mi ENE 4.6 mph - N/A Snow Light Snow
8:16 PM 21.2 °F 14.9 °F 19.4 °F 93% 30.17 in 1.5 mi ENE 4.6 mph - N/A Snow Light Snow
8:56 PM 22.1 °F 17.4 °F 20.1 °F 92% 30.35 in 0.9 mi NNE 3.5 mph - N/A Snow Snow
9:16 PM 21.2 °F 12.6 °F 19.4 °F 93% 30.20 in 1.1 mi SE 6.9 mph - N/A Snow Snow
9:26 PM 21.2 °F 14.9 °F 19.4 °F 93% 30.21 in 2.0 mi SE 4.6 mph - N/A Snow Light Snow
9:36 PM 21.2 °F 14.9 °F 19.4 °F 93% 30.21 in 1.4 mi SE 4.6 mph - N/A Snow Light Snow
9:56 PM 20.8 °F 14.4 °F 19.4 °F 94% 30.35 in 1.4 mi SE 4.6 mph - 0.01 in Snow Light Snow
10:16 PM 21.2 °F 13.6 °F 19.4 °F 93% 30.23 in 2.2 mi SE 5.8 mph - N/A Snow Snow
10:26 PM 17.6 °F 5.0 °F 15.8 °F 93% 30.23 in 1.6 mi ESE 11.5 mph - N/A Snow Light Snow
10:46 PM 17.6 °F 6.4 °F 14.0 °F 86% 30.23 in 1.8 mi ESE 9.2 mph - N/A Snow Light Snow
10:56 PM 16.2 °F 3.9 °F 13.5 °F 89% 30.39 in 2.5 mi East 10.4 mph - 0.01 in Snow Light Snow